When you browse on this site, cookies collect data to enhance your experience and personalize the content and advertising you see.
Visit our Privacy Policy to learn more. By continuing to use the site, you agree to this use of cookies and data.

Stündliche Wetter Zatysivka

Heute, 12 August, Mittwoch

Zeit Temperatur Niederschläge Wind Luftdruck Luftfeuchtigkeit
00:00 +23°C° 0 mm 2 m/S 750 mmHg 80%
01:00 +21°C° 0 mm 2 m/S 751 mmHg 81%
02:00 +21°C° 0 mm 2 m/S 751 mmHg 80%
03:00 +20°C° 0 mm 2 m/S 751 mmHg 82%
04:00 +20°C° 0 mm 2 m/S 751 mmHg 83%
05:00 +19°C° 0 mm 2 m/S 751 mmHg 84%
06:00 +20°C° 0 mm 1 m/S 751 mmHg 84%
07:00 +20°C° 0 mm 2 m/S 751 mmHg 81%
08:00 +24°C° 0 mm 2 m/S 751 mmHg 73%
09:00 +25°C° 0 mm 2 m/S 751 mmHg 66%
10:00 +27°C° 0 mm 2 m/S 752 mmHg 60%
11:00 +28°C° 0 mm 2 m/S 752 mmHg 56%
12:00 +29°C° 0 mm 2 m/S 752 mmHg 52%
13:00 +29°C° 0 mm 2 m/S 752 mmHg 52%
14:00 +30°C° 0 mm 3 m/S 751 mmHg 48%
15:00 +30°C° 0 mm 4 m/S 751 mmHg 45%
16:00 +29°C° 0 mm 4 m/S 751 mmHg 49%
17:00 +29°C° 0 mm 5 m/S 751 mmHg 53%
18:00 +28°C° 0 mm 4 m/S 751 mmHg 54%
19:00 +26°C° 0 mm 4 m/S 751 mmHg 60%
20:00 +24°C° 0 mm 3 m/S 752 mmHg 68%
21:00 +21°C° 0 mm 3 m/S 752 mmHg 73%
22:00 +20°C° 0 mm 3 m/S 752 mmHg 75%
23:00 +19°C° 0 mm 2 m/S 752 mmHg 78%

Morgen, 13 August, Donnerstag

Zeit Temperatur Niederschläge Wind Luftdruck Luftfeuchtigkeit
00:00 +19°C° 0 mm 2 m/S 753 mmHg 78%
01:00 +18°C° 0 mm 2 m/S 752 mmHg 80%
02:00 +19°C° 0 mm 1 m/S 752 mmHg 80%
03:00 +18°C° 0 mm 1 m/S 752 mmHg 80%
04:00 +18°C° 0 mm 1 m/S 752 mmHg 82%
05:00 +16°C° 0 mm 1 m/S 752 mmHg 84%
06:00 +16°C° 0 mm 1 m/S 752 mmHg 84%
07:00 +17°C° 0 mm 2 m/S 753 mmHg 81%
08:00 +20°C° 0 mm 2 m/S 753 mmHg 76%
09:00 +23°C° 0 mm 2 m/S 753 mmHg 63%
10:00 +25°C° 0 mm 2 m/S 753 mmHg 58%
11:00 +26°C° 0 mm 2 m/S 753 mmHg 58%
12:00 +27°C° 0 mm 2 m/S 753 mmHg 58%
13:00 +28°C° 0 mm 2 m/S 752 mmHg 57%
14:00 +29°C° 0 mm 1 m/S 752 mmHg 54%
15:00 +29°C° 0 mm 1 m/S 752 mmHg 52%
16:00 +27°C° 0 mm 0 m/S 751 mmHg 50%
17:00 +29°C° 0 mm 1 m/S 751 mmHg 52%
18:00 +29°C° 0 mm 1 m/S 750 mmHg 55%
19:00 +28°C° 0 mm 2 m/S 750 mmHg 61%
20:00 +26°C° 0 mm 2 m/S 750 mmHg 68%
21:00 +25°C° 0 mm 2 m/S 751 mmHg 71%
22:00 +24°C° 0 mm 2 m/S 751 mmHg 76%
23:00 +23°C° 0 mm 2 m/S 751 mmHg 82%

übermorgen, 14 August, Freitag

Zeit Temperatur Niederschläge Wind Luftdruck Luftfeuchtigkeit
00:00 +21°C° 0 mm 2 m/S 751 mmHg 91%
01:00 +21°C° 0 mm 2 m/S 750 mmHg 94%
02:00 +20°C° 0 mm 2 m/S 750 mmHg 95%
03:00 +20°C° 0 mm 2 m/S 750 mmHg 94%
04:00 +20°C° 0 mm 2 m/S 750 mmHg 94%
05:00 +21°C° 0 mm 1 m/S 750 mmHg 94%
06:00 +21°C° 0 mm 1 m/S 750 mmHg 93%
07:00 +22°C° 0 mm 1 m/S 750 mmHg 92%
08:00 +23°C° 0 mm 1 m/S 750 mmHg 90%
09:00 +24°C° 0 mm 2 m/S 750 mmHg 86%
10:00 +26°C° 0 mm 2 m/S 750 mmHg 83%
11:00 +27°C° 0 mm 2 m/S 750 mmHg 79%
12:00 +27°C° 0 mm 2 m/S 750 mmHg 73%
13:00 +28°C° 0 mm 2 m/S 749 mmHg 71%
14:00 +29°C° 0 mm 3 m/S 748 mmHg 69%
15:00 +29°C° 0.2 mm 2 m/S 748 mmHg 66%
16:00 +30°C° 0 mm 3 m/S 748 mmHg 65%
17:00 +29°C° 0 mm 3 m/S 747 mmHg 64%
18:00 +29°C° 0 mm 2 m/S 747 mmHg 65%
19:00 +26°C° 1.2 mm 4 m/S 747 mmHg 82%
20:00 +25°C° 1.3 mm 1 m/S 747 mmHg 85%
21:00 +25°C° 0 mm 2 m/S 747 mmHg 90%
22:00 +24°C° 0 mm 2 m/S 747 mmHg 91%
23:00 +24°C° 0 mm 3 m/S 747 mmHg 89%

15 August, Samstag

Zeit Temperatur Niederschläge Wind Luftdruck Luftfeuchtigkeit
00:00 +22°C° 0 mm 4 m/S 747 mmHg 88%
01:00 +22°C° 0 mm 3 m/S 746 mmHg 87%
02:00 +22°C° 0 mm 3 m/S 746 mmHg 87%
03:00 +21°C° 0 mm 3 m/S 746 mmHg 87%
04:00 +21°C° 0 mm 2 m/S 746 mmHg 88%
05:00 +20°C° 1.8 mm 4 m/S 745 mmHg 94%
06:00 +20°C° 10.3 mm 4 m/S 745 mmHg 98%
07:00 +20°C° 11 mm 6 m/S 746 mmHg 95%
08:00 +20°C° 10.7 mm 7 m/S 745 mmHg 93%
09:00 +20°C° 3.6 mm 7 m/S 745 mmHg 95%
10:00 +19°C° 0.8 mm 9 m/S 745 mmHg 90%
11:00 +21°C° 0 mm 10 m/S 744 mmHg 88%
12:00 +21°C° 0 mm 9 m/S 743 mmHg 88%
13:00 +24°C° 0 mm 10 m/S 742 mmHg 87%
14:00 +26°C° 0.9 mm 8 m/S 741 mmHg 87%
15:00 +22°C° 19.4 mm 4 m/S 741 mmHg 95%
16:00 +21°C° 14.7 mm 10 m/S 741 mmHg 90%
17:00 +22°C° 1.3 mm 9 m/S 741 mmHg 90%
18:00 +22°C° 0.2 mm 9 m/S 741 mmHg 90%
19:00 +21°C° 2.6 mm 8 m/S 741 mmHg 93%
20:00 +20°C° 12.1 mm 4 m/S 742 mmHg 96%
21:00 +22°C° 14.8 mm 1 m/S 742 mmHg 98%
22:00 +22°C° 17.4 mm 1 m/S 742 mmHg 97%
23:00 +22°C° 4.5 mm 1 m/S 743 mmHg 97%

16 August, Sonntag

Zeit Temperatur Niederschläge Wind Luftdruck Luftfeuchtigkeit
00:00 +22°C° 0.2 mm 3 m/S 743 mmHg 90%
01:00 +22°C° 0 mm 5 m/S 743 mmHg 87%
02:00 +22°C° 0 mm 5 m/S 744 mmHg 87%
03:00 +21°C° 0 mm 6 m/S 744 mmHg 87%
04:00 +21°C° 0 mm 5 m/S 744 mmHg 87%
05:00 +20°C° 0 mm 5 m/S 744 mmHg 86%
06:00 +20°C° 0 mm 6 m/S 744 mmHg 87%
07:00 +19°C° 0 mm 6 m/S 745 mmHg 88%
08:00 +18°C° 0 mm 7 m/S 745 mmHg 90%
09:00 +18°C° 0 mm 7 m/S 746 mmHg 90%
10:00 +19°C° 0 mm 6 m/S 747 mmHg 90%
11:00 +19°C° 0 mm 6 m/S 747 mmHg 90%
12:00 +20°C° 0 mm 6 m/S 748 mmHg 90%
13:00 +20°C° 0 mm 6 m/S 748 mmHg 88%
14:00 +20°C° 0 mm 6 m/S 748 mmHg 88%
15:00 +21°C° 0 mm 5 m/S 748 mmHg 87%
16:00 +22°C° 0 mm 6 m/S 748 mmHg 85%
17:00 +22°C° 0 mm 6 m/S 748 mmHg 83%
18:00 +22°C° 0 mm 5 m/S 748 mmHg 84%
19:00 +22°C° 0 mm 4 m/S 748 mmHg 86%
20:00 +21°C° 0 mm 3 m/S 748 mmHg 88%
21:00 +20°C° 0 mm 3 m/S 749 mmHg 89%
22:00 +20°C° 0 mm 3 m/S 749 mmHg 89%
23:00 +20°C° 0 mm 3 m/S 749 mmHg 89%

17 August, Montag

Zeit Temperatur Niederschläge Wind Luftdruck Luftfeuchtigkeit
00:00 +20°C° 0 mm 3 m/S 749 mmHg 89%
01:00 +20°C° 0 mm 3 m/S 749 mmHg 89%
02:00 +20°C° 0 mm 3 m/S 750 mmHg 91%
03:00 +20°C° 0 mm 4 m/S 750 mmHg 90%
04:00 +20°C° 0 mm 5 m/S 750 mmHg 89%
05:00 +20°C° 0 mm 5 m/S 750 mmHg 89%
06:00 +20°C° 0 mm 6 m/S 750 mmHg 88%
07:00 +20°C° 0 mm 6 m/S 751 mmHg 88%
08:00 +20°C° 0 mm 6 m/S 751 mmHg 87%
09:00 +20°C° 0 mm 5 m/S 751 mmHg 88%
10:00 +21°C° 0 mm 6 m/S 752 mmHg 88%
11:00 +22°C° 0 mm 6 m/S 752 mmHg 87%
12:00 +23°C° 0 mm 6 m/S 752 mmHg 87%
13:00 +25°C° 0 mm 5 m/S 752 mmHg 83%
14:00 +26°C° 0 mm 5 m/S 751 mmHg 80%
15:00 +27°C° 0 mm 4 m/S 751 mmHg 76%
16:00 +27°C° 0 mm 5 m/S 751 mmHg 78%
17:00 +26°C° 0 mm 4 m/S 750 mmHg 80%
18:00 +26°C° 0 mm 4 m/S 750 mmHg 83%
19:00 +25°C° 0 mm 3 m/S 750 mmHg 88%
20:00 +24°C° 0 mm 2 m/S 750 mmHg 93%
21:00 +23°C° 0 mm 1 m/S 750 mmHg 95%
22:00 +23°C° 0 mm 1 m/S 750 mmHg 96%
23:00 +22°C° 0 mm 1 m/S 751 mmHg 96%
Mehr zeigen